COSMOS 2569 [GLONASS-K2] (57517 NORAD) Tracking and Keplerian Element Data

This shows tracking and keplerian element data for the satellite.

Feedback or suggestion? Click here.




ElementValue
Catalog57517
NameCOSMOS 2569 [GLONASS-K2]
Epoch Orbit40
Epoch Day238.44500933
Epoch Year2023
RAAN107.3488
Inclination64.7964
Eccentricity0.000439
Argument of Perigee75.6647
Mean Anonmoly284.4695
Mean Motion2.12687382
Decay Rate2.1E-07
L11 57517U 23114A 23238.44500933 .00000021 00000+0 00000+0 0 9993
L22 57517 64.7964 107.3488 0004390 75.6647 284.4695 2.12687382 406



Live tracking and technical data element details for COSMOS 2569 [GLONASS-K2] (NORAD 57517). COSMOS 2569 [GLONASS-K2] can be tracked NOW for your location showing map with azimuth and elevation plus other details from your city location.







IsCatalogInMostPopularTable: catalog: 57517, numindb: 26
Update: records affected: 1



GetName: 57517 COSMOS 2569 [GLONASS-K2]

Hit Count: updated at: Mon, 04 Dec 2023 04:17:00 GMT